AFR006 LFPG-KJFK

Flight info

Callsign AFR006
Flight time N/A
Altitude 32000
Route ELCOB UT300 SENLO DCT JSY DCT LIZAD DCT LESLU/N0475F340 DCT DOGAL/M083F350 NATC ELSIR/N0479F360 N406A TOPPS DCT ENE PARCH4
Aircraft B77W/H-SDE2E3FGHIJ3J5M1P2RWXYZ/LB1D1

Departure

Time 2026-05-07 11:55
Airport Charles de Gaulle International Airport (LFPG)

Arrival

Time N/A
Airport John F. Kennedy International Airport (KJFK)
Time Latitude Longitude Altitude Speed Heading
2026-05-07 10:32 49.00117 2.57527 364 ft 0 kts 359°
2026-05-07 10:32 49.00130 2.57526 366 ft 0 kts 358°
2026-05-07 11:38 49.00109 2.57527 359 ft 4 kts 358°
2026-05-07 11:38 49.00082 2.57529 363 ft 4 kts 358°
2026-05-07 11:38 49.00057 2.57530 365 ft 4 kts 339°
2026-05-07 11:39 49.00047 2.57548 367 ft 4 kts 259°
2026-05-07 11:39 49.00053 2.57588 365 ft 4 kts 262°
2026-05-07 11:39 49.00055 2.57604 359 ft 1 kts 265°
2026-05-07 11:43 49.00053 2.57580 366 ft 7 kts 265°
2026-05-07 11:43 49.00047 2.57469 365 ft 12 kts 265°
2026-05-07 11:43 49.00040 2.57348 362 ft 10 kts 264°
2026-05-07 11:44 49.00005 2.57291 359 ft 8 kts 191°
2026-05-07 11:44 48.99962 2.57250 367 ft 8 kts 240°
2026-05-07 11:44 48.99950 2.57170 359 ft 8 kts 262°
2026-05-07 11:44 48.99945 2.57088 366 ft 8 kts 264°
2026-05-07 11:45 48.99938 2.56984 364 ft 13 kts 266°
2026-05-07 11:45 48.99931 2.56828 359 ft 15 kts 265°
2026-05-07 11:45 48.99922 2.56665 362 ft 15 kts 265°
2026-05-07 11:45 48.99913 2.56501 364 ft 15 kts 266°
2026-05-07 11:46 48.99906 2.56338 362 ft 15 kts 266°
2026-05-07 11:46 48.99897 2.56174 359 ft 15 kts 265°
2026-05-07 11:46 48.99892 2.56088 359 ft 0 kts 264°
2026-05-07 11:50 48.99892 2.56085 359 ft 2 kts 264°
2026-05-07 11:51 48.99888 2.55983 366 ft 16 kts 270°
2026-05-07 11:51 48.99896 2.55838 361 ft 8 kts 259°
2026-05-07 11:51 48.99886 2.55818 368 ft 2 kts 220°
2026-05-07 11:51 48.99869 2.55805 367 ft 4 kts 208°
2026-05-07 11:52 48.99832 2.55799 359 ft 6 kts 176°
2026-05-07 11:52 48.99790 2.55803 366 ft 6 kts 176°
2026-05-07 11:52 48.99749 2.55808 365 ft 6 kts 176°
2026-05-07 11:52 48.99708 2.55812 359 ft 6 kts 176°
2026-05-07 11:53 48.99667 2.55817 367 ft 6 kts 176°
2026-05-07 11:53 48.99622 2.55822 365 ft 7 kts 175°
2026-05-07 11:53 48.99604 2.55862 365 ft 5 kts 98°
2026-05-07 11:53 48.99605 2.55890 358 ft 0 kts 86°
2026-05-07 11:54 48.99609 2.55987 358 ft 28 kts 86°
2026-05-07 11:54 48.99644 2.56665 363 ft 100 kts 85°
2026-05-07 11:55 48.99720 2.58070 364 ft 163 kts 85°
2026-05-07 11:55 48.99817 2.60000 479 ft 195 kts 87°
2026-05-07 11:55 48.99890 2.62064 1031 ft 195 kts 85°
2026-05-07 11:55 49.00003 2.64130 1700 ft 194 kts 84°
2026-05-07 11:56 49.00131 2.66199 2178 ft 197 kts 83°
2026-05-07 11:56 49.00259 2.68295 2623 ft 199 kts 84°
2026-05-07 11:56 49.00378 2.70404 3084 ft 200 kts 84°
2026-05-07 11:56 49.00494 2.72520 3546 ft 201 kts 84°
2026-05-07 11:57 49.00606 2.74695 3808 ft 215 kts 85°
2026-05-07 11:57 49.00724 2.77048 4038 ft 231 kts 86°
2026-05-07 11:57 49.00692 2.79542 4183 ft 247 kts 99°
2026-05-07 11:57 49.00377 2.82170 4441 ft 259 kts 100°
2026-05-07 11:58 49.00022 2.84887 5029 ft 264 kts 103°
2026-05-07 11:58 48.99638 2.87636 5683 ft 267 kts 101°
2026-05-07 11:58 48.99345 2.90441 6314 ft 270 kts 99°
2026-05-07 11:58 48.99072 2.93291 6904 ft 274 kts 99°
2026-05-07 11:59 48.98880 2.95237 7303 ft 276 kts 99°
2026-05-07 11:59 48.98403 2.98008 7734 ft 277 kts 121°
2026-05-07 11:59 48.97053 3.00064 8197 ft 279 kts 154°
2026-05-07 11:59 48.95199 3.00826 8774 ft 279 kts 180°
2026-05-07 12:00 48.93303 3.00281 9336 ft 280 kts 205°
2026-05-07 12:00 48.91748 2.98540 9941 ft 281 kts 231°
2026-05-07 12:00 48.90806 2.95948 10387 ft 284 kts 251°
2026-05-07 12:00 48.90222 2.92969 10537 ft 305 kts 254°
2026-05-07 12:01 48.89637 2.89765 10708 ft 325 kts 254°
2026-05-07 12:01 48.89019 2.86345 10876 ft 345 kts 254°
2026-05-07 12:01 48.88362 2.82747 11176 ft 361 kts 254°
2026-05-07 12:01 48.87678 2.79031 11766 ft 369 kts 254°
2026-05-07 12:02 48.86971 2.75253 12553 ft 373 kts 254°
2026-05-07 12:02 48.86253 2.71461 13454 ft 375 kts 254°
2026-05-07 12:02 48.85524 2.67635 14280 ft 378 kts 254°
2026-05-07 12:02 48.84788 2.63781 15005 ft 382 kts 254°
2026-05-07 12:03 48.84044 2.59891 15718 ft 386 kts 254°
2026-05-07 12:03 48.83290 2.55957 16450 ft 390 kts 254°
2026-05-07 12:03 48.82527 2.51987 17192 ft 394 kts 254°
2026-05-07 12:03 48.81753 2.47969 17915 ft 398 kts 253°
2026-05-07 12:04 48.80969 2.43913 18596 ft 402 kts 253°
2026-05-07 12:04 48.80415 2.39813 19058 ft 406 kts 268°
2026-05-07 12:04 48.80775 2.35549 19561 ft 411 kts 286°
2026-05-07 12:04 48.81683 2.31430 20102 ft 414 kts 287°
2026-05-07 12:05 48.82568 2.27239 20721 ft 418 kts 287°
2026-05-07 12:05 48.83432 2.23009 21368 ft 422 kts 286°
2026-05-07 12:05 48.84292 2.18733 21966 ft 425 kts 286°
2026-05-07 12:05 48.85153 2.14420 22549 ft 428 kts 286°
2026-05-07 12:06 48.86017 2.10082 23105 ft 432 kts 286°
2026-05-07 12:06 48.86891 2.05702 23650 ft 435 kts 286°
2026-05-07 12:06 48.87771 2.01278 24109 ft 438 kts 286°
2026-05-07 12:06 48.88653 1.96831 24600 ft 441 kts 286°
2026-05-07 12:07 48.89537 1.92357 25052 ft 443 kts 286°
2026-05-07 12:07 48.90429 1.87847 25489 ft 446 kts 286°
2026-05-07 12:07 48.91313 1.83374 25937 ft 449 kts 286°
2026-05-07 12:07 48.92225 1.78746 26372 ft 452 kts 286°
2026-05-07 12:08 48.93113 1.74221 26802 ft 454 kts 285°
2026-05-07 12:08 48.94018 1.69603 27214 ft 457 kts 285°
2026-05-07 12:08 48.94928 1.64949 27634 ft 459 kts 285°
2026-05-07 12:08 48.95836 1.60285 28022 ft 462 kts 285°
2026-05-07 12:09 48.96752 1.55583 28401 ft 464 kts 285°
2026-05-07 12:09 48.97670 1.50863 28769 ft 467 kts 285°
2026-05-07 12:09 48.98590 1.46110 29117 ft 469 kts 285°
2026-05-07 12:09 48.99512 1.41330 29478 ft 471 kts 285°
2026-05-07 12:10 49.00434 1.36536 29919 ft 470 kts 285°
2026-05-07 12:10 49.01352 1.31765 30425 ft 468 kts 285°
2026-05-07 12:10 49.02262 1.27017 30872 ft 467 kts 285°
2026-05-07 12:10 49.03150 1.22266 31251 ft 466 kts 282°
2026-05-07 12:11 49.03632 1.17408 31603 ft 463 kts 272°
2026-05-07 12:11 49.03767 1.12504 31966 ft 462 kts 270°
2026-05-07 12:11 49.03834 1.07589 32041 ft 466 kts 270°
2026-05-07 12:12 49.03977 0.97791 32061 ft 463 kts 271°
2026-05-07 12:12 49.04215 0.88026 32068 ft 460 kts 271°
2026-05-07 12:13 49.04488 0.78280 32065 ft 460 kts 271°
2026-05-07 12:13 49.04761 0.68527 32061 ft 461 kts 271°
2026-05-07 12:14 49.05023 0.58758 32056 ft 461 kts 271°
2026-05-07 12:14 49.05273 0.48970 32058 ft 462 kts 271°
2026-05-07 12:15 49.05515 0.39175 32066 ft 464 kts 271°
2026-05-07 12:15 49.05750 0.29342 32056 ft 464 kts 271°
2026-05-07 12:16 49.05976 0.19521 32052 ft 463 kts 271°
2026-05-07 12:16 49.06192 0.09779 32058 ft 463 kts 270°
2026-05-07 12:17 49.06405 -0.00083 32054 ft 462 kts 270°
2026-05-07 12:17 49.06605 -0.09832 32051 ft 462 kts 270°
2026-05-07 12:18 49.06798 -0.19631 32049 ft 462 kts 270°
2026-05-07 12:18 49.06985 -0.29440 32067 ft 463 kts 270°
2026-05-07 12:19 49.07162 -0.39280 32047 ft 464 kts 270°
2026-05-07 12:19 49.07331 -0.49113 32050 ft 464 kts 270°
2026-05-07 12:20 49.07494 -0.58946 32042 ft 463 kts 270°
2026-05-07 12:20 49.07652 -0.68766 32063 ft 464 kts 270°
2026-05-07 12:21 49.07799 -0.78549 32046 ft 463 kts 270°
2026-05-07 12:21 49.07937 -0.88360 32049 ft 462 kts 270°
2026-05-07 12:22 49.08065 -0.98166 32047 ft 462 kts 270°
2026-05-07 12:22 49.08188 -1.07965 32039 ft 461 kts 270°
2026-05-07 12:23 49.08466 -1.17754 32034 ft 462 kts 275°
2026-05-07 12:23 49.09778 -1.27373 32045 ft 464 kts 283°
2026-05-07 12:24 49.11368 -1.36873 32049 ft 465 kts 282°
2026-05-07 12:24 49.12936 -1.46481 32039 ft 467 kts 282°
2026-05-07 12:25 49.14481 -1.56114 32044 ft 467 kts 282°
2026-05-07 12:25 49.16013 -1.65755 32040 ft 467 kts 282°
2026-05-07 12:26 49.17538 -1.75398 32037 ft 466 kts 282°
2026-05-07 12:26 49.19052 -1.85036 32044 ft 466 kts 282°
2026-05-07 12:27 49.20558 -1.94678 32044 ft 466 kts 282°
2026-05-07 12:27 49.22051 -2.04261 32046 ft 466 kts 281°
2026-05-07 12:28 49.23646 -2.13880 32043 ft 466 kts 283°
2026-05-07 12:28 49.25314 -2.23466 32054 ft 466 kts 283°
2026-05-07 12:29 49.26973 -2.33073 32028 ft 467 kts 283°
2026-05-07 12:29 49.28609 -2.42692 32057 ft 466 kts 282°
2026-05-07 12:30 49.30232 -2.52319 32040 ft 466 kts 282°
2026-05-07 12:30 49.31841 -2.61942 32044 ft 465 kts 282°
2026-05-07 12:31 49.33435 -2.71500 32063 ft 465 kts 282°
2026-05-07 12:31 49.35028 -2.81125 32049 ft 466 kts 282°
2026-05-07 12:32 49.36614 -2.90761 32033 ft 466 kts 282°
2026-05-07 12:32 49.38192 -3.00410 32036 ft 466 kts 282°
2026-05-07 12:33 49.40557 -3.14922 32036 ft 467 kts 282°
2026-05-07 12:33 49.42120 -3.24609 32026 ft 468 kts 282°
2026-05-07 12:34 49.43666 -3.34249 32028 ft 468 kts 282°
2026-05-07 12:34 49.45216 -3.43962 32028 ft 468 kts 282°
2026-05-07 12:35 49.46760 -3.53696 32028 ft 468 kts 281°
2026-05-07 12:35 49.48299 -3.63449 32031 ft 468 kts 281°
2026-05-07 12:36 49.49814 -3.73123 32026 ft 469 kts 281°
2026-05-07 12:36 49.51336 -3.82887 32022 ft 469 kts 281°
2026-05-07 12:37 49.52846 -3.92652 32021 ft 469 kts 281°
2026-05-07 12:37 49.54351 -4.02417 32025 ft 469 kts 281°
2026-05-07 12:38 49.55848 -4.12194 32024 ft 469 kts 281°
2026-05-07 12:38 49.57336 -4.21984 32021 ft 470 kts 281°
2026-05-07 12:39 49.59135 -4.31683 32010 ft 472 kts 289°
2026-05-07 12:39 49.62068 -4.40766 32024 ft 476 kts 300°
2026-05-07 12:40 49.65608 -4.49339 32026 ft 476 kts 300°
2026-05-07 12:40 49.69190 -4.57957 32031 ft 478 kts 300°
2026-05-07 12:41 49.72756 -4.66639 32020 ft 479 kts 300°
2026-05-07 12:41 49.76302 -4.75363 32023 ft 479 kts 300°
2026-05-07 12:42 49.79834 -4.84103 32022 ft 479 kts 300°
2026-05-07 12:42 49.83362 -4.92854 32023 ft 479 kts 300°
2026-05-07 12:43 49.86857 -5.01551 32028 ft 478 kts 300°
2026-05-07 12:43 49.90362 -5.10302 32023 ft 477 kts 300°
2026-05-07 12:44 49.93855 -5.19052 32021 ft 477 kts 300°
2026-05-07 12:44 49.97345 -5.27814 32019 ft 476 kts 300°
2026-05-07 12:45 50.00821 -5.36576 32020 ft 476 kts 299°
2026-05-07 12:45 50.04285 -5.45348 32019 ft 476 kts 299°
2026-05-07 12:46 50.07746 -5.54132 32034 ft 477 kts 299°
2026-05-07 12:46 50.11211 -5.62949 32031 ft 478 kts 299°
2026-05-07 12:47 50.14090 -5.70303 32025 ft 478 kts 299°
2026-05-07 12:47 50.17549 -5.79170 32021 ft 478 kts 299°
2026-05-07 12:48 50.21001 -5.88047 32021 ft 478 kts 299°
2026-05-07 12:48 50.24449 -5.96946 32020 ft 478 kts 299°
2026-05-07 12:49 50.27888 -6.05853 32019 ft 479 kts 298°
2026-05-07 12:49 50.31321 -6.14769 32031 ft 479 kts 298°
2026-05-07 12:50 50.34752 -6.23712 32010 ft 479 kts 298°
2026-05-07 12:50 50.38179 -6.32678 32026 ft 479 kts 298°
2026-05-07 12:51 50.41575 -6.41591 32032 ft 479 kts 298°
2026-05-07 12:51 50.44988 -6.50575 32027 ft 480 kts 298°
2026-05-07 12:52 50.48396 -6.59594 32028 ft 480 kts 298°
2026-05-07 12:52 50.51800 -6.68625 32021 ft 480 kts 298°
2026-05-07 12:53 50.55201 -6.77674 32021 ft 480 kts 298°
2026-05-07 12:53 50.58593 -6.86733 32023 ft 480 kts 298°
2026-05-07 12:54 50.61978 -6.95803 32019 ft 480 kts 298°
2026-05-07 12:54 50.65328 -7.04820 32022 ft 481 kts 298°
2026-05-07 12:55 50.68708 -7.13941 32022 ft 481 kts 298°
2026-05-07 12:55 50.70978 -7.20088 32018 ft 482 kts 298°
2026-05-07 12:56 50.74178 -7.28777 32017 ft 482 kts 298°
2026-05-07 12:56 50.77543 -7.37947 32013 ft 482 kts 298°
2026-05-07 12:57 50.80878 -7.47065 32014 ft 482 kts 297°
2026-05-07 12:57 50.84227 -7.56249 32016 ft 482 kts 297°
2026-05-07 12:58 50.87573 -7.65472 32011 ft 483 kts 297°
2026-05-07 12:58 50.90914 -7.74712 32009 ft 483 kts 297°
2026-05-07 12:59 50.94249 -7.83962 32008 ft 483 kts 297°
2026-05-07 12:59 50.97586 -7.93249 32008 ft 483 kts 297°
2026-05-07 13:00 51.01068 -8.02376 32010 ft 485 kts 304°
2026-05-07 13:00 51.05199 -8.10854 32022 ft 485 kts 306°
2026-05-07 13:01 51.09381 -8.19292 32009 ft 486 kts 306°
2026-05-07 13:01 51.13528 -8.27770 32005 ft 485 kts 306°
2026-05-07 13:02 51.17626 -8.36228 32006 ft 485 kts 306°
2026-05-07 13:02 51.21736 -8.44757 31999 ft 485 kts 305°
2026-05-07 13:03 51.25838 -8.53302 32004 ft 484 kts 305°
2026-05-07 13:03 51.29891 -8.61758 32005 ft 484 kts 305°
2026-05-07 13:04 51.33972 -8.70309 32003 ft 483 kts 305°
2026-05-07 13:04 51.38010 -8.78801 31995 ft 482 kts 305°
2026-05-07 13:05 51.42059 -8.87339 31991 ft 481 kts 305°
2026-05-07 13:05 51.46097 -8.95882 31988 ft 480 kts 305°
2026-05-07 13:06 51.50120 -9.04418 31991 ft 480 kts 305°
2026-05-07 13:06 51.54143 -9.12978 31987 ft 480 kts 304°
2026-05-07 13:07 51.58154 -9.21550 31994 ft 479 kts 305°
2026-05-07 13:07 51.62158 -9.30140 31979 ft 479 kts 305°
2026-05-07 13:08 51.66147 -9.38719 31980 ft 478 kts 305°
2026-05-07 13:08 51.70120 -9.47296 31982 ft 477 kts 304°
2026-05-07 13:09 51.74057 -9.55820 31978 ft 476 kts 304°
2026-05-07 13:09 51.78005 -9.64394 31978 ft 475 kts 304°
2026-05-07 13:10 51.81940 -9.72974 31968 ft 475 kts 304°
2026-05-07 13:10 51.85871 -9.81574 31986 ft 475 kts 305°
2026-05-07 13:11 51.89798 -9.90189 31973 ft 474 kts 304°
2026-05-07 13:11 51.93679 -9.98729 31967 ft 473 kts 304°
2026-05-07 13:12 51.97570 -10.07328 31977 ft 473 kts 304°
2026-05-07 13:12 52.01450 -10.15930 31968 ft 472 kts 304°
2026-05-07 13:13 52.05327 -10.24551 31966 ft 472 kts 304°
2026-05-07 13:13 52.09186 -10.33161 31973 ft 471 kts 304°
2026-05-07 13:14 52.13037 -10.41784 31963 ft 471 kts 304°
2026-05-07 13:14 52.16881 -10.50419 31965 ft 470 kts 304°
2026-05-07 13:15 52.20713 -10.59056 31963 ft 471 kts 304°
2026-05-07 13:15 52.24547 -10.67725 31962 ft 471 kts 304°
2026-05-07 13:16 52.28377 -10.76416 31961 ft 471 kts 303°
2026-05-07 13:16 52.32201 -10.85123 31954 ft 471 kts 303°
2026-05-07 13:17 52.35987 -10.93776 31953 ft 471 kts 303°
2026-05-07 13:17 52.39790 -11.02497 31955 ft 470 kts 303°
2026-05-07 13:18 52.43576 -11.11204 31940 ft 468 kts 303°
2026-05-07 13:18 52.47342 -11.19894 31951 ft 467 kts 303°
2026-05-07 13:19 52.51098 -11.28593 31943 ft 467 kts 303°
2026-05-07 13:19 52.54852 -11.37321 31939 ft 467 kts 303°
2026-05-07 13:20 52.58580 -11.46007 31944 ft 468 kts 303°
2026-05-07 13:20 52.62329 -11.54783 31938 ft 468 kts 303°
2026-05-07 13:21 52.66068 -11.63567 31943 ft 469 kts 302°
2026-05-07 13:21 52.69809 -11.72376 31951 ft 470 kts 302°
2026-05-07 13:22 52.73554 -11.81236 31946 ft 470 kts 302°
2026-05-07 13:22 52.77312 -11.90109 31946 ft 471 kts 301°
2026-05-07 13:23 52.81025 -11.99011 31934 ft 470 kts 301°
2026-05-07 13:23 52.84716 -12.07863 31943 ft 471 kts 301°
2026-05-07 13:24 52.88466 -12.16823 32140 ft 475 kts 301°
2026-05-07 13:24 52.90339 -12.21318 32503 ft 474 kts 301°
2026-05-07 13:24 52.92211 -12.25816 32874 ft 473 kts 301°
2026-05-07 13:25 52.95963 -12.34869 32934 ft 475 kts 301°
2026-05-07 13:25 52.99672 -12.43853 32934 ft 469 kts 301°
2026-05-07 13:26 53.03333 -12.52754 32947 ft 469 kts 301°
2026-05-07 13:26 53.07011 -12.61734 32957 ft 470 kts 301°
2026-05-07 13:27 53.10686 -12.70732 32947 ft 471 kts 300°
2026-05-07 13:27 53.14367 -12.79783 32948 ft 472 kts 300°
2026-05-07 13:28 53.18031 -12.88819 32966 ft 473 kts 300°
2026-05-07 13:28 53.21706 -12.97920 32944 ft 472 kts 300°
2026-05-07 13:29 53.25367 -13.07013 32946 ft 471 kts 300°
2026-05-07 13:29 53.29013 -13.16104 32960 ft 471 kts 299°
2026-05-07 13:30 53.32651 -13.25202 32946 ft 470 kts 299°
2026-05-07 13:30 53.36276 -13.34308 32948 ft 470 kts 299°
2026-05-07 13:31 53.39892 -13.43428 32944 ft 469 kts 299°
2026-05-07 13:31 53.43501 -13.52559 32969 ft 469 kts 299°
2026-05-07 13:32 53.47099 -13.61695 32977 ft 469 kts 299°
2026-05-07 13:32 53.50691 -13.70849 32952 ft 468 kts 298°
2026-05-07 13:33 53.53665 -13.78451 32949 ft 468 kts 298°
2026-05-07 13:33 53.57808 -13.89080 32950 ft 467 kts 298°
2026-05-07 13:34 53.62566 -14.01344 32947 ft 467 kts 298°
2026-05-07 13:35 53.66114 -14.10530 32955 ft 467 kts 298°
2026-05-07 13:35 53.69658 -14.19741 32968 ft 468 kts 298°
2026-05-07 13:36 53.73175 -14.28911 32942 ft 469 kts 298°
2026-05-07 13:36 53.76719 -14.38182 32946 ft 469 kts 298°
2026-05-07 13:37 53.80249 -14.47461 32944 ft 468 kts 298°
2026-05-07 13:37 53.83766 -14.56740 32967 ft 467 kts 298°
2026-05-07 13:38 53.87275 -14.66021 32980 ft 468 kts 297°
2026-05-07 13:38 53.90780 -14.75335 32972 ft 468 kts 297°
2026-05-07 13:39 53.94276 -14.84658 32956 ft 468 kts 297°
2026-05-07 13:39 53.97719 -14.93967 32965 ft 465 kts 294°
2026-05-07 13:40 53.99862 -15.04122 32969 ft 453 kts 277°
2026-05-07 13:40 54.00384 -15.14691 32987 ft 447 kts 268°
2026-05-07 13:40 54.00454 -15.19999 33118 ft 450 kts 268°
2026-05-07 13:41 54.00580 -15.25314 33362 ft 452 kts 272°
2026-05-07 13:41 54.01044 -15.30626 33648 ft 454 kts 276°
2026-05-07 13:41 54.01595 -15.35912 33929 ft 455 kts 275°
2026-05-07 13:42 54.02397 -15.46617 33979 ft 455 kts 271°
2026-05-07 13:42 54.02824 -15.51918 33955 ft 453 kts 282°
2026-05-07 13:42 54.03887 -15.56950 33991 ft 451 kts 286°
2026-05-07 13:42 54.04677 -15.62089 33960 ft 447 kts 272°
2026-05-07 13:43 54.04811 -15.67294 33980 ft 446 kts 268°
2026-05-07 13:43 54.04820 -15.77924 33979 ft 452 kts 267°
2026-05-07 13:44 54.04856 -15.88669 33987 ft 454 kts 268°
2026-05-07 13:44 54.04959 -15.99426 33973 ft 454 kts 268°
2026-05-07 13:45 54.05090 -16.10135 33977 ft 451 kts 269°
2026-05-07 13:45 54.05215 -16.20765 33981 ft 448 kts 269°
2026-05-07 13:46 54.05330 -16.31334 33981 ft 445 kts 269°
2026-05-07 13:46 54.05428 -16.41796 33980 ft 444 kts 268°
2026-05-07 13:47 54.05515 -16.52318 33998 ft 444 kts 268°
2026-05-07 13:47 54.05597 -16.62846 34000 ft 445 kts 268°
2026-05-07 13:48 54.05668 -16.73404 33993 ft 447 kts 268°
2026-05-07 13:48 54.05731 -16.83994 33991 ft 447 kts 268°
2026-05-07 13:49 54.05786 -16.94595 34012 ft 448 kts 268°
2026-05-07 13:49 54.05828 -17.05216 34007 ft 448 kts 268°
2026-05-07 13:50 54.05863 -17.15760 34010 ft 448 kts 269°
2026-05-07 13:50 54.05890 -17.26367 34004 ft 447 kts 268°
2026-05-07 13:51 54.05908 -17.36949 34016 ft 447 kts 268°
2026-05-07 13:51 54.05915 -17.47502 34014 ft 445 kts 268°
2026-05-07 13:52 54.05912 -17.58039 34019 ft 445 kts 268°
2026-05-07 13:52 54.05902 -17.68559 34023 ft 444 kts 268°
2026-05-07 13:53 54.05881 -17.79090 34022 ft 446 kts 268°
2026-05-07 13:53 54.05854 -17.89654 34023 ft 446 kts 268°
2026-05-07 13:54 54.05812 -18.00236 34030 ft 447 kts 268°
2026-05-07 13:54 54.05764 -18.10759 34031 ft 448 kts 268°
2026-05-07 13:55 54.05706 -18.21386 34027 ft 449 kts 268°
2026-05-07 13:55 54.05639 -18.32014 34032 ft 449 kts 268°
2026-05-07 13:56 54.05562 -18.42662 34038 ft 449 kts 268°
2026-05-07 13:56 54.05477 -18.53312 34041 ft 450 kts 268°
2026-05-07 13:57 54.05380 -18.63966 34038 ft 450 kts 268°
2026-05-07 13:57 54.05276 -18.74562 34045 ft 450 kts 268°
2026-05-07 13:58 54.05163 -18.85222 34046 ft 451 kts 268°
2026-05-07 13:58 54.05035 -18.95917 34049 ft 452 kts 268°
2026-05-07 13:59 54.04903 -19.06632 34048 ft 453 kts 268°
2026-05-07 13:59 54.04760 -19.17394 34055 ft 454 kts 268°
2026-05-07 14:00 54.04607 -19.28141 34054 ft 454 kts 268°
2026-05-07 14:00 54.04443 -19.38893 34059 ft 454 kts 268°
2026-05-07 14:01 54.04271 -19.49643 34064 ft 455 kts 268°
2026-05-07 14:01 54.04088 -19.60326 34062 ft 454 kts 268°
2026-05-07 14:02 54.03898 -19.71090 34062 ft 454 kts 268°
2026-05-07 14:02 54.03697 -19.81830 34070 ft 454 kts 268°
2026-05-07 14:03 54.03487 -19.92569 34066 ft 454 kts 268°
2026-05-07 14:03 54.03251 -20.03316 34076 ft 454 kts 266°
2026-05-07 14:04 54.02680 -20.14030 34076 ft 455 kts 264°
2026-05-07 14:04 54.01980 -20.24672 34076 ft 455 kts 264°
2026-05-07 14:05 54.01300 -20.35377 34077 ft 455 kts 264°
2026-05-07 14:05 54.00648 -20.46070 34076 ft 455 kts 265°
2026-05-07 14:06 53.99996 -20.56768 34083 ft 455 kts 265°
2026-05-07 14:06 53.99336 -20.67478 34109 ft 456 kts 265°
2026-05-07 14:07 53.98668 -20.78212 34092 ft 457 kts 265°
2026-05-07 14:07 53.97985 -20.88952 34090 ft 458 kts 264°
2026-05-07 14:08 53.97288 -20.99724 34081 ft 458 kts 265°
2026-05-07 14:08 53.96586 -21.10483 34094 ft 459 kts 265°
2026-05-07 14:09 53.95875 -21.21194 34088 ft 459 kts 265°
2026-05-07 14:09 53.95151 -21.31985 34097 ft 459 kts 264°
2026-05-07 14:10 53.94418 -21.42744 34103 ft 459 kts 264°
2026-05-07 14:10 53.93673 -21.53511 34088 ft 459 kts 265°
2026-05-07 14:11 53.92920 -21.64255 34104 ft 458 kts 265°
2026-05-07 14:11 53.92157 -21.74998 34104 ft 458 kts 264°
2026-05-07 14:12 53.91387 -21.85736 34103 ft 458 kts 264°
2026-05-07 14:12 53.90607 -21.96470 34109 ft 458 kts 264°
2026-05-07 14:13 53.89818 -22.07199 34108 ft 458 kts 264°
2026-05-07 14:13 53.89017 -22.17922 34112 ft 459 kts 264°
2026-05-07 14:14 53.88212 -22.28579 34112 ft 459 kts 264°
2026-05-07 14:14 53.87391 -22.39309 34115 ft 459 kts 264°
2026-05-07 14:15 53.86563 -22.50036 34117 ft 459 kts 264°
2026-05-07 14:15 53.85723 -22.60762 34113 ft 459 kts 264°
2026-05-07 14:16 53.84875 -22.71475 34124 ft 459 kts 264°
2026-05-07 14:16 53.84018 -22.82185 34136 ft 459 kts 264°
2026-05-07 14:17 53.83148 -22.92907 34123 ft 459 kts 264°
2026-05-07 14:17 53.82272 -23.03611 34125 ft 459 kts 264°
2026-05-07 14:18 53.81383 -23.14322 34122 ft 460 kts 264°
2026-05-07 14:18 53.80484 -23.25052 34126 ft 460 kts 264°
2026-05-07 14:19 53.79729 -23.33970 34131 ft 460 kts 264°
2026-05-07 14:19 53.78662 -23.46435 34146 ft 460 kts 264°
2026-05-07 14:20 53.77887 -23.55404 34141 ft 460 kts 264°
2026-05-07 14:20 53.76953 -23.66115 34127 ft 461 kts 264°
2026-05-07 14:21 53.76011 -23.76757 34140 ft 461 kts 264°
2026-05-07 14:21 53.75053 -23.87488 34145 ft 461 kts 264°
2026-05-07 14:22 53.74087 -23.98201 34142 ft 461 kts 264°
2026-05-07 14:22 53.73110 -24.08914 34147 ft 461 kts 264°
2026-05-07 14:23 53.72126 -24.19604 34143 ft 461 kts 264°
2026-05-07 14:23 53.71133 -24.30297 34149 ft 461 kts 264°
2026-05-07 14:24 53.70130 -24.40990 34151 ft 461 kts 264°
2026-05-07 14:24 53.69118 -24.51670 34176 ft 461 kts 264°
2026-05-07 14:25 53.68165 -24.62282 34219 ft 459 kts 265°
2026-05-07 14:25 53.67423 -24.71854 34459 ft 451 kts 265°